Home > Weather > Tyler > Past weeks

Flag for U.S.A. Weather for the Past 2 Weeks in Tyler, Texas, U.S.A.

Now
54 °F

Partly sunny.


Feels Like: 49 °F
Forecast: 35 / 57 °F
Wind: 20 mph from Northwest

Location: Tyler Pounds Field

Current Time: Feb 9, 2016 at 12:23:40 PM

Latest Report: Feb 9, 2016 at 11:53 AM


Visibility: N/A

Pressure: 30.27 "Hg

Humidity: 22%

Dew point: 16 °F

Location of TylerLocation

Historic Weather in Tyler — Graph

°F

Tyler Temperature Yesterday

Maximum temperature yesterday: 55 °F (at 1:53 PM)
Minimum temperature yesterday: 40 °F (at 11:53 PM)
Average temperature yesterday: 49 °F

High & Low Weather Summary for the Past Weeks

 TemperatureHumidityPressure
High78 °F (Jan 31, 2:53 PM)92% (Feb 7, 2:53 AM)30.50 "Hg (Feb 7, 2:53 AM)
Low28 °F (Jan 28, 6:53 AM)15% (Feb 8, 3:53 PM)29.54 "Hg (Feb 1, 11:53 PM)
Average52 °F51%30.09 "Hg
* Reported Jan 25 10:53 AM — Feb 9 10:53 AM, Tyler, Weather by CustomWeather, © 2016

Note: Actual official high and low records may vary slightly from our data, if they occured in-between our weather recording intervals... More about our weather records

Advertising

Tyler Weather History for the Previous 24 Hours

 ConditionsComfort  
Time TempWeatherWind HumidityBarometerVisibility
10:53 AM
Tue, Feb 9
52 °FSunny.18 mph23%30.28 "HgN/A
9:53 AM48 °FSunny.12 mph27%30.28 "HgN/A
8:53 AM44 °FSunny.9 mph32%30.28 "HgN/A
7:53 AM37 °FSunny.6 mph42%30.28 "HgN/A
6:53 AM36 °FClear.7 mph42%30.27 "HgN/A
5:53 AM36 °FClear.8 mph42%30.26 "HgN/A
4:53 AM37 °FClear.8 mph41%30.25 "HgN/A
3:53 AM38 °FClear.5 mph37%30.24 "HgN/A
2:53 AM39 °FClear.7 mph36%30.24 "HgN/A
1:53 AM38 °FClear.7 mph39%30.24 "HgN/A
12:53 AM39 °FClear.8 mph36%30.24 "HgN/A
11:53 PM
Mon, Feb 8
40 °FClear.7 mph35%30.23 "HgN/A
10:53 PM41 °FClear.5 mph32%30.23 "HgN/A
9:53 PM44 °FClear.8 mph27%30.23 "HgN/A
8:53 PM46 °FClear.10 mph24%30.21 "HgN/A
7:53 PM47 °FClear.10 mph23%30.21 "HgN/A
6:53 PM49 °FClear.9 mph20%30.20 "HgN/A
5:53 PM52 °FSunny.16 mph15%30.20 "HgN/A
4:53 PM54 °FSunny.22 mph16%30.18 "HgN/A
3:53 PM55 °FSunny.26 mph15%30.19 "HgN/A
2:53 PM55 °FSunny.29 mph16%30.19 "HgN/A
1:53 PM55 °FSunny.30 mph18%30.21 "HgN/A
12:53 PM54 °FSunny.24 mph19%30.23 "HgN/A
Weather by CustomWeather, © 2016

See weather overviewHow to use our weather pages